Location: Poughquag
(41.6090°N, 73.6820°W)
Time: 03:26:40
(UTC-04:00)

Transit 2A Rocket - Pass Details

Date: 05 June 2020
Orbit: 584 x 919 km, 66.7° (Epoch: 06 July)

Event Time Altitude Azimuth Distance (km) Brightness Sun altitude
Rises 21:15:39 0° 196° (SSW) 3,030 7.8 -8.3°
Reaches altitude 10° 21:17:54 10° 192° (SSW) 2,167 7.1 -8.7°
Maximum altitude 21:22:45 57° 115° (ESE) 886 5.0 -9.3°
Drops below altitude 10° 21:28:08 10° 37° (NE) 2,405 7.7 -10.1°
Sets 21:30:44 0° 34° (NE) 3,392 8.5 -10.4°
